• In Uzbekistan
  • List of Countries
  • For 7 days
  • Water Temperature
  • Satellite Maps
  • Weather Map
  • Weather Widgets
  • user-avatar
    Login

    Hourly Weather Unterhaching

    Today, 21 November, Tuesday

    Time Temperature Precipitation Wind Pressure Humidity
    00:00 +1°C° 0.3 mm 4 mps 713 mmHg 81%
    01:00 +3°C° 0 mm 4 mps 712 mmHg 82%
    02:00 +3°C° 0.3 mm 4 mps 712 mmHg 83%
    03:00 +2°C° 0.3 mm 5 mps 712 mmHg 85%
    04:00 +2°C° 0.3 mm 5 mps 712 mmHg 87%
    05:00 +3°C° 0.4 mm 5 mps 712 mmHg 87%
    06:00 +3°C° 0.4 mm 5 mps 712 mmHg 88%
    07:00 +3°C° 0 mm 6 mps 712 mmHg 87%
    08:00 +3°C° 0.1 mm 5 mps 712 mmHg 87%
    09:00 +5°C° 0.1 mm 5 mps 712 mmHg 86%
    10:00 +5°C° 0.1 mm 5 mps 712 mmHg 85%
    11:00 +5°C° 0.3 mm 5 mps 712 mmHg 85%
    12:00 +6°C° 0.3 mm 4 mps 712 mmHg 84%
    13:00 +6°C° 0.3 mm 4 mps 712 mmHg 84%
    14:00 +6°C° 0.3 mm 4 mps 712 mmHg 83%
    15:00 +6°C° 0.3 mm 4 mps 712 mmHg 83%
    16:00 +7°C° 0.3 mm 3 mps 712 mmHg 82%
    17:00 +7°C° 0 mm 3 mps 712 mmHg 82%
    18:00 +5°C° 0 mm 3 mps 712 mmHg 82%
    19:00 +5°C° 0 mm 3 mps 712 mmHg 82%
    20:00 +4°C° 0 mm 3 mps 712 mmHg 82%
    21:00 +4°C° 0 mm 3 mps 712 mmHg 83%
    22:00 +3°C° 0 mm 3 mps 712 mmHg 83%
    23:00 +3°C° 0 mm 3 mps 712 mmHg 82%

    Tomorrow, 22 November, Wednesday

    Time Temperature Precipitation Wind Pressure Humidity
    00:00 +3°C° 0 mm 3 mps 712 mmHg 82%
    01:00 +3°C° 0 mm 3 mps 712 mmHg 82%
    02:00 +3°C° 0 mm 3 mps 712 mmHg 82%
    03:00 +3°C° 0 mm 3 mps 712 mmHg 81%
    04:00 +3°C° 0 mm 3 mps 712 mmHg 81%
    05:00 +2°C° 0 mm 3 mps 712 mmHg 80%
    06:00 +2°C° 0 mm 3 mps 712 mmHg 80%
    07:00 +3°C° 0 mm 2 mps 711 mmHg 79%
    08:00 +5°C° 0 mm 2 mps 712 mmHg 77%
    09:00 +6°C° 0 mm 2 mps 712 mmHg 74%
    10:00 +8°C° 0 mm 2 mps 712 mmHg 72%
    11:00 +9°C° 0 mm 2 mps 712 mmHg 70%
    12:00 +10°C° 0 mm 2 mps 711 mmHg 68%
    13:00 +13°C° 0 mm 1 mps 711 mmHg 67%
    14:00 +12°C° 0 mm 1 mps 711 mmHg 70%
    15:00 +11°C° 0 mm 1 mps 711 mmHg 73%
    16:00 +9°C° 0 mm 1 mps 711 mmHg 77%
    17:00 +8°C° 0 mm 1 mps 711 mmHg 78%
    18:00 +6°C° 0 mm 2 mps 711 mmHg 79%
    19:00 +5°C° 0 mm 2 mps 711 mmHg 80%
    20:00 +5°C° 0 mm 2 mps 711 mmHg 78%
    21:00 +5°C° 0 mm 2 mps 711 mmHg 77%
    22:00 +4°C° 0 mm 2 mps 711 mmHg 76%
    23:00 +4°C° 0 mm 2 mps 710 mmHg 75%

    Day after tomorrow, 23 November, Thursday

    Time Temperature Precipitation Wind Pressure Humidity
    00:00 +4°C° 0 mm 2 mps 710 mmHg 75%
    01:00 +4°C° 0 mm 2 mps 710 mmHg 74%
    02:00 +3°C° 0 mm 2 mps 710 mmHg 75%
    03:00 +3°C° 0 mm 2 mps 710 mmHg 75%
    04:00 +4°C° 0 mm 1 mps 710 mmHg 76%
    05:00 +3°C° 0 mm 2 mps 710 mmHg 76%
    06:00 +3°C° 0 mm 2 mps 711 mmHg 77%
    07:00 +3°C° 0 mm 2 mps 711 mmHg 77%
    08:00 +4°C° 0 mm 2 mps 711 mmHg 74%
    09:00 +6°C° 0 mm 2 mps 711 mmHg 71%
    10:00 +7°C° 0 mm 2 mps 712 mmHg 68%
    11:00 +9°C° 0 mm 2 mps 712 mmHg 67%
    12:00 +10°C° 0 mm 2 mps 712 mmHg 67%
    13:00 +13°C° 0 mm 1 mps 712 mmHg 66%
    14:00 +12°C° 0 mm 1 mps 712 mmHg 68%
    15:00 +10°C° 0 mm 2 mps 712 mmHg 70%
    16:00 +9°C° 0 mm 2 mps 713 mmHg 73%
    17:00 +8°C° 0 mm 2 mps 713 mmHg 72%
    18:00 +7°C° 0 mm 2 mps 714 mmHg 72%
    19:00 +6°C° 0 mm 2 mps 714 mmHg 72%
    20:00 +6°C° 0 mm 2 mps 714 mmHg 71%
    21:00 +6°C° 0 mm 2 mps 714 mmHg 70%
    22:00 +5°C° 0 mm 2 mps 715 mmHg 69%
    23:00 +5°C° 0 mm 2 mps 715 mmHg 68%

    24 November, Friday

    Time Temperature Precipitation Wind Pressure Humidity
    00:00 +5°C° 0 mm 2 mps 715 mmHg 68%
    01:00 +5°C° 0 mm 2 mps 715 mmHg 68%
    02:00 +5°C° 0 mm 2 mps 715 mmHg 68%
    03:00 +5°C° 0 mm 2 mps 715 mmHg 68%
    04:00 +5°C° 0 mm 2 mps 715 mmHg 68%
    05:00 +4°C° 0 mm 2 mps 715 mmHg 68%
    06:00 +4°C° 0 mm 2 mps 715 mmHg 69%
    07:00 +4°C° 0 mm 2 mps 715 mmHg 69%
    08:00 +5°C° 0 mm 2 mps 715 mmHg 68%
    09:00 +6°C° 0 mm 2 mps 714 mmHg 66%
    10:00 +8°C° 0 mm 2 mps 714 mmHg 65%
    11:00 +10°C° 0 mm 1 mps 714 mmHg 64%
    12:00 +11°C° 0 mm 1 mps 714 mmHg 62%
    13:00 +13°C° 0 mm 1 mps 713 mmHg 61%
    14:00 +12°C° 0 mm 1 mps 713 mmHg 66%
    15:00 +10°C° 0 mm 1 mps 713 mmHg 71%
    16:00 +9°C° 0 mm 1 mps 713 mmHg 77%
    17:00 +9°C° 0 mm 1 mps 713 mmHg 77%
    18:00 +7°C° 0 mm 2 mps 714 mmHg 76%
    19:00 +7°C° 0 mm 2 mps 714 mmHg 76%
    20:00 +6°C° 0 mm 2 mps 714 mmHg 75%
    21:00 +6°C° 0 mm 2 mps 714 mmHg 74%
    22:00 +6°C° 0 mm 2 mps 714 mmHg 72%
    23:00 +6°C° 0 mm 2 mps 714 mmHg 72%

    25 November, Saturday

    Time Temperature Precipitation Wind Pressure Humidity
    00:00 +5°C° 0 mm 2 mps 713 mmHg 71%
    01:00 +5°C° 0 mm 2 mps 713 mmHg 70%
    02:00 +5°C° 0 mm 2 mps 713 mmHg 70%
    03:00 +6°C° 0 mm 1 mps 713 mmHg 70%
    04:00 +6°C° 0 mm 1 mps 712 mmHg 71%
    05:00 +6°C° 0 mm 1 mps 712 mmHg 71%
    06:00 +6°C° 0 mm 1 mps 712 mmHg 71%
    07:00 +5°C° 0 mm 2 mps 712 mmHg 71%
    08:00 +6°C° 0 mm 2 mps 712 mmHg 70%
    09:00 +7°C° 0 mm 2 mps 712 mmHg 68%
    10:00 +9°C° 0 mm 2 mps 712 mmHg 67%
    11:00 +10°C° 0 mm 2 mps 711 mmHg 66%
    12:00 +12°C° 0 mm 2 mps 711 mmHg 66%
    13:00 +13°C° 0 mm 2 mps 711 mmHg 65%
    14:00 +12°C° 0 mm 2 mps 711 mmHg 69%
    15:00 +10°C° 0 mm 2 mps 712 mmHg 73%
    16:00 +9°C° 0 mm 3 mps 712 mmHg 77%
    17:00 +8°C° 0.1 mm 3 mps 713 mmHg 80%
    18:00 +8°C° 0.1 mm 2 mps 714 mmHg 83%
    19:00 +7°C° 0.1 mm 2 mps 715 mmHg 86%
    20:00 +7°C° 0.2 mm 2 mps 715 mmHg 86%
    21:00 +6°C° 0.2 mm 2 mps 716 mmHg 86%
    22:00 +6°C° 0.2 mm 2 mps 716 mmHg 87%
    23:00 +6°C° 0.1 mm 2 mps 716 mmHg 87%

    26 November, Sunday

    Time Temperature Precipitation Wind Pressure Humidity
    00:00 +5°C° 0.1 mm 2 mps 716 mmHg 88%
    01:00 +5°C° 0.1 mm 2 mps 716 mmHg 88%
    02:00 +5°C° 0.1 mm 2 mps 716 mmHg 89%
    03:00 +5°C° 0.1 mm 2 mps 716 mmHg 90%
    04:00 +5°C° 0.1 mm 2 mps 715 mmHg 91%
    05:00 +4°C° 0.5 mm 2 mps 715 mmHg 91%
    06:00 +4°C° 0.5 mm 2 mps 715 mmHg 92%
    07:00 +4°C° 0.5 mm 2 mps 715 mmHg 92%
    08:00 +4°C° 1.1 mm 2 mps 716 mmHg 91%
    09:00 +4°C° 1.1 mm 2 mps 716 mmHg 90%
    10:00 +4°C° 1.1 mm 2 mps 716 mmHg 89%
    11:00 +3°C° 0.7 mm 3 mps 716 mmHg 87%
    12:00 +3°C° 0.7 mm 3 mps 716 mmHg 84%
    13:00 +3°C° 0.7 mm 3 mps 717 mmHg 81%
    14:00 +3°C° 0.3 mm 3 mps 717 mmHg 81%
    15:00 +3°C° 0.3 mm 3 mps 717 mmHg 82%
    16:00 +3°C° 0.3 mm 2 mps 717 mmHg 82%
    17:00 +2°C° 0 mm 2 mps 718 mmHg 83%
    18:00 +1°C° 0 mm 3 mps 718 mmHg 85%
    19:00 0°C° 0 mm 3 mps 719 mmHg 86%
    20:00 -1°C° 0 mm 3 mps 719 mmHg 86%
    21:00 -1°C° 0 mm 3 mps 719 mmHg 87%
    22:00 -1°C° 0 mm 3 mps 720 mmHg 87%
    23:00 -2°C° 0 mm 3 mps 720 mmHg 87%
    Show more